Probability
92 97 99 98 98 99 100 99 94 86 79 74 63 40 17 6 3 2 1 0 0 0 0 0 0 0 0 0 0 0 0 0 0 0 0 0 0 0 0 0 0 0 0
96 98 100 99 99 99 98 96 93 87 81 72 53 29 12 4 2 1 0 0 0 0 0 0 0 0 0 0 0 0 0 0 0 0 0 0 0 0 0 0 0 0 0
99 100 99 98 97 95 92 89 86 83 74 56 31 13 4 1 1 0 0 0 0 0 0 0 0 0 0 0 0 0 0 0 0 0 0 0 0 0 0 0 0 0 0
99 98 95 91 85 79 73 69 67 62 51 34 15 5 1 0 0 0 0 0 0 0 0 0 0 0 0 0 0 0 0 0 0 0 0 0 0 0 0 0 0 0 0
96 92 83 73 61 50 43 40 37 33 25 16 9 4 1 0 0 0 0 0 0 0 0 0 0 0 0 0 0 0 0 0 0 0 0 0 0 0 0 0 0 0 0
86 76 60 45 32 22 17 16 14 11 8 5 3 2 0 0 0 0 0 0 0 0 0 0 0 0 0 0 0 0 0 0 0 0 0 0 0 0 0 0 0 0 0
68 52 32 19 11 6 5 5 4 3 1 0 0 0 0 0 0 0 0 0 0 0 0 0 0 0 0 0 0 0 0 0 0 0 0 0 0 0 0 0 0 0 0
50 31 11 4 2 1 1 1 0 0 0 0 0 0 0 0 0 0 0 0 0 0 0 0 0 0 0 0 0 0 0 0 0 0 0 0 0 0 0 0 0 0 0
34 17 3 0 0 0 0 0 0 0 0 0 0 0 0 0 0 0 0 0 0 0 0 0 0 0 0 0 0 0 0 0 0 0 0 0 0 0 0 0 0 0 0
18 8 1 0 0 0 0 0 0 0 0 0 0 0 0 0 0 0 0 0 0 0 0 0 0 0 0 0 0 0 0 0 0 0 0 0 0 0 0 0 0 0 0
8 4 0 0 0 0 0 0 0 0 0 0 0 0 0 0 0 0 0 0 0 0 0 0 0 0 0 0 0 0 0 0 0 0 0 0 0 0 0 0 0 0 0
4 2 0 0 0 0 0 0 0 0 0 0 0 0 0 0 0 0 0 0 0 0 0 0 0 0 0 0 0 0 0 0 0 0 0 0 0 0 0 0 0 0 0
3 1 0 0 0 0 0 0 0 0 0 0 0 0 0 0 0 0 0 0 0 0 0 0 0 0 0 0 0 0 0 0 0 0 0 0 0 0 0 0 0 0 0
2 1 0 0 0 0 0 0 0 0 0 0 0 0 0 0 0 0 0 0 0 0 0 0 0 0 0 0 0 0 0 0 0 0 0 0 0 0 0 0 0 0 0
1 0 0 0 0 0 0 0 0 0 0 0 0 0 0 0 0 0 0 0 0 0 0 0 0 0 0 0 0 0 0 0 0 0 0 0 0 0 0 0 0 0 0
0 0 0 0 0 0 0 0 0 0 0 0 0 0 0 0 0 0 0 0 0 0 0 0 0 0 0 0 0 0 0 0 0 0 0 0 0 0 0 0 0 0 0
0 0 0 0 0 0 0 0 0 0 0 0 0 0 0 0 0 0 0 0 0 0 0 0 0 0 0 0 0 0 0 0 0 0 0 0 0 0 0 0 0 0 0
0 0 0 0 0 0 0 0 0 0 0 0 0 0 0 0 0 0 0 0 0 0 0 0 0 0 0 0 0 0 0 0 0 0 0 0 0 0 0 0 0 0 0
0 0 0 0 0 0 0 0 0 0 0 0 0 0 0 0 0 0 0 0 0 0 0 0 0 0 0 0 0 0 0 0 0 0 0 0 0 0 0 0 0 0 0
0 0 0 0 0 0 0 0 0 0 0 0 0 0 0 0 0 0 0 0 0 0 0 0 0 0 0 0 0 0 0 0 0 0 0 0 0 0 0 0 0 0 0
0 0 0 0 0 0 0 0 0 0 0 0 0 0 0 0 0 0 0 0 0 0 0 0 0 0 0 0 0 0 0 0 0 0 0 0 0 0 0 0 0 0 0
0 0 0 0 0 0 0 0 0 0 0 0 0 0 0 0 0 0 0 0 0 0 0 0 0 0 0 0 0 0 0 0 0 0 0 0 0 0 0 0 0 0 0
0 0 0 0 0 0 0 0 0 0 0 0 0 0 0 0 0 0 0 0 0 0 0 0 0 0 0 0 0 0 0 0 0 0 0 0 0 0 0 0 0 0 0
0 0 0 0 0 0 0 0 0 0 0 0 0 0 0 0 0 0 0 0 0 0 0 0 0 0 0 0 0 0 0 0 0 0 0 0 0 0 0 0 0 0 0
0 0 0 0 0 0 0 0 0 0 0 0 0 0 0 0 0 0 0 0 0 0 0 0 0 0 0 0 0 0 0 0 0 0 0 0 0 0 0 0 0 0 0
0 0 0 0 0 0 0 0 0 0 0 0 0 0 0 0 0 0 0 0 0 0 0 0 0 0 0 0 0 0 0 0 0 0 0 0 0 0 0 0 0 0 0
Wind_Speed
13 11 10 10 11 11 11 11 11 11 8 7 7 7 7 6 7 7 8 8 7 7 5 4 4 4 3 4 4 5 6 6 5 9 11 11 12 11 8 9 9 10 11
12 11 11 11 11 11 11 11 11 11 10 7 6 6 8 7 7 7 7 7 6 5 4 4 2 3 2 2 4 4 7 7 6 7 10 11 11 8 7 6 8 10 10
15 13 12 11 11 12 11 10 10 10 10 11 10 9 8 7 7 6 5 5 5 5 4 3 4 3 5 4 5 5 6 7 8 5 7 9 9 10 7 8 8 9 10
15 15 14 13 12 11 10 11 10 11 11 10 10 11 8 7 6 5 5 5 3 3 3 3 3 4 4 4 5 5 6 6 7 5 4 6 9 8 8 8 9 10 11
14 14 13 13 12 12 11 11 12 11 11 10 10 9 8 8 7 6 5 3 3 2 2 3 3 3 3 4 5 5 6 6 6 7 7 7 7 10 11 11 10 11 11
13 12 12 13 12 12 11 11 12 11 10 9 9 9 10 9 8 5 4 2 1 1 2 2 2 3 4 3 4 5 5 5 6 7 7 7 8 9 10 12 12 11 11
13 14 14 13 13 13 12 12 12 11 9 9 8 9 9 8 6 4 3 0 0 0 2 3 3 4 3 4 5 5 6 6 6 7 7 7 8 9 10 11 12 13 12
14 15 15 14 14 14 13 12 12 11 10 9 9 8 7 5 5 4 2 1 2 2 2 3 4 4 5 6 5 7 6 5 7 9 8 9 10 9 10 11 12 13 12
15 16 16 15 15 14 12 12 12 11 10 10 9 8 7 6 6 5 2 1 1 1 2 3 5 5 6 6 7 7 8 8 9 10 10 10 9 9 9 9 10 12 14
15 16 16 15 14 13 12 10 10 10 10 10 8 7 7 6 5 3 3 1 1 2 4 4 5 6 7 7 8 9 8 9 10 10 12 12 11 10 10 10 10 11 12
16 16 15 15 14 13 12 11 11 10 9 8 7 7 5 4 3 2 1 1 2 3 5 6 6 7 8 9 9 11 12 13 13 13 14 15 15 12 11 11 11 12 12
16 16 16 16 14 13 12 11 10 9 8 8 7 6 4 3 1 0 2 3 4 6 7 8 9 10 11 11 12 13 13 14 15 15 16 16 14 15 13 12 14 13 13
16 16 15 15 14 12 11 10 9 8 8 7 6 5 3 1 1 2 4 5 7 8 9 10 11 12 12 12 12 13 13 14 14 15 16 16 16 16 14 15 14 13 13
15 16 15 14 12 11 11 10 9 8 7 6 4 3 2 2 3 4 5 7 8 9 11 12 12 13 13 12 11 11 13 14 14 15 15 16 16 16 15 13 14 13 13
15 16 15 13 12 11 10 9 8 7 5 4 4 3 2 2 3 5 7 8 9 10 10 11 11 10 9 7 10 12 14 15 16 16 15 15 17 19 16 13 13 14 11
13 13 13 12 10 10 9 8 7 5 4 4 4 3 2 3 5 6 7 7 7 8 8 8 8 8 6 9 10 12 14 15 15 14 14 14 15 15 16 18 19 18 16
12 12 12 10 9 8 7 7 5 4 4 4 2 2 3 5 6 6 6 7 7 7 7 7 8 9 5 6 9 13 15 15 13 13 13 12 12 15 13 14 17 17 20
13 13 12 11 8 7 6 5 5 5 3 2 2 3 4 5 6 6 6 6 6 7 7 7 8 9 6 3 9 16 15 14 13 13 13 13 14 13 13 13 13 15 16
14 14 12 11 8 6 6 6 5 3 2 3 4 5 6 6 6 6 6 6 7 7 7 7 8 8 7 5 10 14 13 12 15 15 15 15 15 14 14 14 14 15 14
14 13 11 9 7 6 5 5 4 3 4 5 6 6 6 6 6 6 6 6 6 7 7 7 7 8 8 7 10 13 10 11 12 13 13 15 15 15 14 13 13 14 12
14 12 10 8 7 6 4 4 4 6 6 6 7 6 6 5 5 5 5 6 6 6 7 8 7 7 8 9 9 13 11 11 12 11 10 10 13 14 15 14 12 11 10
13 10 9 8 6 4 4 5 7 6 6 6 6 6 5 5 5 5 5 5 7 6 7 8 8 8 9 10 12 15 15 15 13 11 10 11 15 15 14 10 8 9 7
11 9 10 8 5 4 4 7 7 6 6 6 6 5 5 5 5 5 5 5 6 6 7 7 8 9 10 10 12 15 16 17 13 11 16 18 16 13 8 7 7 3 3
11 9 9 8 7 7 8 8 7 6 6 6 5 4 5 5 6 6 6 5 6 7 7 8 9 9 9 10 11 11 11 13 12 11 12 13 12 8 7 7 7 6 5
9 7 8 9 9 9 9 8 7 6 6 6 5 4 5 6 5 5 6 6 7 7 7 7 8 8 9 12 17 12 10 10 11 12 8 7 7 7 6 6 6 5 4
8 8 9 9 10 10 9 8 6 6 5 5 5 4 5 5 5 4 3 2 3 4 6 7 8 8 10 15 17 17 17 16 16 10 8 8 8 8 7 6 6 6 5
Wind_Direction
180 165 166 166 163 159 157 155 152 148 151 146 144 134 120 109 96 85 79 76 71 69 51 61 61 19 33 7 343 324 300 282 302 292 285 275 264 257 261 266 274 274 277
160 161 169 168 164 156 152 151 153 152 153 137 119 112 109 100 92 88 78 75 73 63 65 39 26 24 340 326 332 326 313 309 304 302 302 294 284 265 267 279 280 290 296
181 172 173 168 159 153 152 148 147 145 136 131 123 121 119 123 118 110 98 79 78 73 55 39 4 343 313 347 334 323 323 319 309 308 310 308 313 328 302 295 289 290 288
189 179 175 165 153 143 138 134 134 130 130 135 139 145 147 138 130 130 119 116 98 79 60 30 14 345 341 349 314 1 317 308 306 312 292 292 310 300 298 293 291 289 283
186 179 171 155 142 136 131 129 128 125 126 126 130 135 133 129 132 133 130 140 119 83 42 27 11 350 335 354 336 328 318 312 314 317 310 303 290 277 279 289 290 284 281
171 161 148 139 133 129 127 128 126 122 125 129 132 132 129 131 135 142 142 175 141 102 54 4 350 320 334 330 317 315 301 317 323 308 305 300 297 296 295 294 290 288 289
158 149 144 140 136 135 133 130 127 124 126 124 122 123 126 132 131 135 120 338 337 1 62 329 318 319 320 307 306 294 307 300 300 291 298 303 298 295 295 295 297 299 298
162 156 150 146 143 140 137 135 132 130 131 127 125 123 129 123 110 99 82 77 347 5 14 297 294 295 296 296 300 292 287 286 286 286 288 287 287 295 297 299 302 298 295
162 156 151 149 146 144 143 141 138 138 137 133 130 125 115 101 104 123 155 122 56 328 298 292 290 290 290 293 291 285 288 286 283 287 286 283 290 290 288 291 291 291 291
160 157 153 150 148 145 142 140 140 136 136 137 134 125 122 119 126 141 101 58 349 334 307 299 294 291 288 285 285 287 288 291 286 287 290 290 287 289 287 284 283 281 281
162 160 154 150 147 145 144 143 141 140 139 131 124 121 123 129 141 146 183 274 306 303 291 294 293 290 288 286 284 285 291 289 292 293 293 295 295 292 291 287 282 279 278
164 161 154 150 150 150 149 146 141 140 135 127 128 133 140 136 164 293 306 285 283 287 290 290 288 287 287 288 287 289 293 295 296 298 299 299 299 295 291 287 282 280 278
162 157 154 153 154 153 147 140 136 133 133 135 139 137 142 122 322 311 294 287 285 285 288 289 288 290 292 292 293 295 298 300 301 303 302 301 300 295 291 289 287 285 282
163 160 157 155 153 148 140 136 132 133 130 131 129 118 79 13 328 304 295 290 290 291 291 293 295 298 300 301 309 314 312 307 304 303 301 298 296 295 295 293 288 284 281
170 165 158 151 146 137 131 126 123 120 123 125 112 92 72 359 308 301 302 303 305 305 309 309 310 313 312 352 351 328 313 308 305 302 302 301 300 294 288 284 285 286 285
170 160 148 139 134 128 123 119 114 116 124 114 98 82 18 320 318 321 325 332 337 340 340 337 333 330 354 34 352 321 312 307 304 305 305 300 293 293 291 281 277 279 283
155 143 135 125 116 112 111 111 114 128 122 108 84 23 335 340 354 1 11 12 3 358 349 344 338 334 14 33 336 324 311 303 305 303 297 294 295 297 292 294 293 284 277
134 127 120 112 106 108 110 114 128 127 119 100 37 11 4 18 35 34 27 13 0 351 344 342 342 332 355 27 326 324 309 308 307 304 299 296 294 291 288 288 283 279 277
113 112 112 113 115 118 120 122 125 116 100 50 32 31 37 48 42 34 21 7 353 351 342 353 343 335 341 6 322 320 319 312 312 311 308 305 299 292 284 286 285 284 285
102 107 110 112 111 109 111 116 111 92 62 50 56 61 58 51 41 28 9 6 354 359 349 356 344 337 335 338 314 317 319 312 311 308 304 297 292 292 289 290 288 289 297
102 106 108 106 106 109 112 102 79 64 65 77 79 72 63 52 36 25 15 3 3 7 357 350 340 336 334 329 328 324 323 320 312 307 306 304 301 296 291 287 284 285 296
103 108 110 108 106 105 104 89 74 78 87 89 84 71 47 25 30 25 18 14 2 1 359 350 345 344 342 341 338 322 317 317 314 311 312 316 316 311 304 296 293 294 291
115 118 117 118 121 116 92 87 87 93 96 91 76 59 46 38 25 19 25 18 10 2 359 352 348 344 342 339 336 327 323 322 320 317 321 324 324 325 326 346 357 14 69
129 135 137 131 117 101 88 88 93 96 93 81 67 58 46 50 52 27 27 19 11 6 1 355 346 340 336 340 342 334 329 329 329 330 329 330 334 350 7 24 45 53 56
136 138 128 117 107 99 93 93 93 92 84 74 64 56 56 50 51 54 35 21 36 14 350 350 340 333 335 335 328 329 333 334 335 331 342 355 0 17 31 42 47 45 48
133 130 123 113 106 102 96 89 82 73 68 72 59 49 47 44 40 45 77 130 11 344 325 327 333 338 334 329 334 339 338 338 339 346 2 5 9 19 29 38 42 41 43